sat.trackr.live / text

‹ back to catalog

STARLINK-36650

NORAD 67836 · 2026-033R

PAYLOAD ACTIVE UNKNOWN

§ Identity

Operator
Country
US
Launch date
2026-02-16
Launch site
AFETR
Launch vehicle
Mass (kg)
RCS (m²)

Purposes: comms

External: N2YO · Heavens-Above · Gunter

§ Orbital elements

Epoch: 2026-09-19T05:52:09.712704Z

Period
94.27 min
Inclination
43.0023°
Eccentricity
0.0001956
Mean motion
15.27585854 rev/d
Perigee alt
481.7 km
Apogee alt
484.4 km
Semi-major
6,861.2 km
B*
4.4388e-4
RAAN
254.1439°
Arg perigee
283.7104°
Mean anomaly
76.3530°
Rev number
3,427

§ Raw data

STARLINK-366501 67836U 26033R   26262.24455686  .00011975  00000+0  44388-3 0  99942 67836  43.0023 254.1439 0001956 283.7104  76.3530 15.27585854 34278

JSON: /api/v1/satellites/67836 · /tle

For live sub-satellite position, see the globe view (requires WebGL).

§ Visibility from observer

Set your observer location to see the next 7 days of passes ≥ 10°. The values pass through the URL so the page stays shareable.

No JS? Fill the form by hand. The geolocation button needs JavaScript.